| time (UTC) | temp C | wind direction | speed KPH | gust KPH | rain 1hr cm | rain 24hr cm | rain mn cm | humidity % | barometer mb |
| 20260906200048 | 29 | 278 | 0.0 | 1.6 | 0.00 | 0.00 | 0.00 | 31 | 1016.1 |
| 20260906194544 | 30 | 285 | 0.0 | 1.6 | 0.00 | 0.00 | 0.00 | 30 | 1015.8 |
| 20260906193102 | 30 | 254 | 0.0 | 1.6 | 0.00 | 0.00 | 0.00 | 30 | 1015.6 |
| 20260906191550 | 30 | 226 | 0.0 | 1.6 | 0.00 | 0.00 | 0.00 | 30 | 1015.5 |
| 20260906190042 | 31 | 233 | 0.0 | 1.6 | 0.00 | 0.00 | 0.00 | 29 | 1015.2 |
| 20260906184546 | 32 | 235 | 0.0 | 1.6 | 0.00 | 0.00 | 0.00 | 28 | 1015.1 |
| 20260906183040 | 32 | 279 | 0.0 | 4.8 | 0.00 | 0.00 | 0.00 | 26 | 1015.1 |
| 20260906181603 | 33 | 232 | 1.6 | 8.0 | 0.00 | 0.00 | 0.00 | 25 | 1015.2 |
| 20260906180040 | 34 | 334 | 3.2 | 11.3 | 0.00 | 0.00 | 0.00 | 25 | 1015.1 |
| 20260906174546 | 35 | 233 | 4.8 | 12.9 | 0.00 | 0.00 | 0.00 | 25 | 1015.1 |
| 20260906173043 | 35 | 285 | 4.8 | 17.7 | 0.00 | 0.00 | 0.00 | 23 | 1015.0 |
| 20260906171549 | 35 | 276 | 4.8 | 17.7 | 0.00 | 0.00 | 0.00 | 23 | 1015.0 |
| 20260906170040 | 35 | 278 | 4.8 | 16.1 | 0.00 | 0.00 | 0.00 | 23 | 1015.0 |
| 20260906164541 | 35 | 252 | 6.4 | 16.1 | 0.00 | 0.00 | 0.00 | 25 | 1015.0 |
| 20260906163034 | 35 | 262 | 4.8 | 14.5 | 0.00 | 0.00 | 0.00 | 24 | 1014.9 |
| 20260906161536 | 36 | 257 | 3.2 | 14.5 | 0.00 | 0.00 | 0.00 | 25 | 1014.8 |
| 20260906160033 | 36 | 240 | 4.8 | 16.1 | 0.00 | 0.00 | 0.00 | 24 | 1014.9 |
| 20260906154539 | 36 | 190 | 3.2 | 20.9 | 0.00 | 0.00 | 0.00 | 26 | 1014.9 |
| 20260906153033 | 36 | 255 | 4.8 | 17.7 | 0.00 | 0.00 | 0.00 | 25 | 1015.0 |
| 20260906151529 | 36 | 207 | 6.4 | 16.1 | 0.00 | 0.00 | 0.00 | 26 | 1015.0 |
| 20260906150027 | 35 | 127 | 8.0 | 19.3 | 0.00 | 0.00 | 0.00 | 25 | 1015.2 |
| 20260906144524 | 35 | 299 | 6.4 | 17.7 | 0.00 | 0.00 | 0.00 | 26 | 1015.3 |
| 20260906143020 | 35 | 131 | 6.4 | 14.5 | 0.00 | 0.00 | 0.00 | 26 | 1015.5 |
| 20260906141515 | 35 | 87 | 4.8 | 17.7 | 0.00 | 0.00 | 0.00 | 27 | 1015.7 |
| 20260906140013 | 35 | 238 | 4.8 | 17.7 | 0.00 | 0.00 | 0.00 | 26 | 1015.9 |
| 20260906134518 | 35 | 143 | 6.4 | 19.3 | 0.00 | 0.00 | 0.00 | 27 | 1016.1 |
| 20260906133011 | 35 | 184 | 8.0 | 17.7 | 0.00 | 0.00 | 0.00 | 26 | 1016.1 |
| 20260906131511 | 35 | 285 | 6.4 | 14.5 | 0.00 | 0.00 | 0.00 | 26 | 1016.1 |
| 20260906130008 | 35 | 213 | 3.2 | 11.3 | 0.00 | 0.00 | 0.00 | 27 | 1016.2 |
| 20260906124507 | 35 | 93 | 3.2 | 12.9 | 0.00 | 0.00 | 0.00 | 28 | 1016.3 |
| 20260906123005 | 33 | 12 | 3.2 | 14.5 | 0.00 | 0.00 | 0.00 | 28 | 1016.4 |
| 20260906121502 | 33 | 168 | 1.6 | 9.7 | 0.00 | 0.00 | 0.00 | 28 | 1016.6 |
| 20260906120058 | 33 | 195 | 0.0 | 12.9 | 0.00 | 0.00 | 0.00 | 29 | 1016.7 |
| 20260906114559 | 32 | 245 | 4.8 | 11.3 | 0.00 | 0.00 | 0.00 | 30 | 1016.9 |
| 20260906113051 | 32 | 96 | 1.6 | 9.7 | 0.00 | 0.00 | 0.00 | 30 | 1016.9 |
| 20260906111550 | 32 | 164 | 1.6 | 6.4 | 0.00 | 0.00 | 0.00 | 31 | 1017.1 |
| 20260906110048 | 31 | 309 | 3.2 | 8.0 | 0.00 | 0.00 | 0.00 | 31 | 1017.2 |
| 20260906104555 | 31 | 119 | 0.0 | 4.8 | 0.00 | 0.00 | 0.00 | 32 | 1017.5 |
| 20260906103042 | 30 | 130 | 3.2 | 6.4 | 0.00 | 0.00 | 0.00 | 33 | 1017.5 |
| 20260906101540 | 30 | 111 | 1.6 | 4.8 | 0.00 | 0.00 | 0.00 | 33 | 1017.7 |
| 20260906100036 | 29 | 216 | 1.6 | 8.0 | 0.00 | 0.00 | 0.00 | 36 | 1017.7 |
| 20260906094556 | 28 | 107 | 1.6 | 9.7 | 0.00 | 0.00 | 0.00 | 37 | 1017.7 |
| 20260906093048 | 28 | 99 | 1.6 | 8.0 | 0.00 | 0.00 | 0.00 | 36 | 1017.6 |
| 20260906091533 | 28 | 108 | 1.6 | 6.4 | 0.00 | 0.00 | 0.00 | 36 | 1017.7 |
| 20260906090032 | 27 | 104 | 1.6 | 8.0 | 0.00 | 0.00 | 0.00 | 37 | 1017.7 |
| 20260906084525 | 27 | 85 | 1.6 | 6.4 | 0.00 | 0.00 | 0.00 | 41 | 1017.7 |
| 20260906083041 | 26 | 96 | 1.6 | 4.8 | 0.00 | 0.00 | 0.00 | 42 | 1017.7 |
| 20260906081530 | 25 | 103 | 0.0 | 1.6 | 0.00 | 0.00 | 0.00 | 45 | 1017.8 |
| 20260906080032 | 24 | 103 | 0.0 | 0.0 | 0.00 | 0.00 | 0.00 | 47 | 1017.7 |
| 20260906074528 | 23 | 103 | 0.0 | 0.0 | 0.00 | 0.00 | 0.00 | 46 | 1017.7 |
| 20260906073025 | 23 | 103 | 0.0 | 1.6 | 0.00 | 0.00 | 0.00 | 46 | 1017.6 |
| 20260906071520 | 23 | 103 | 0.0 | 0.0 | 0.00 | 0.00 | 0.00 | 48 | 1017.4 |
| 20260906070019 | 22 | 103 | 0.0 | 1.6 | 0.00 | 0.00 | 0.00 | 51 | 1017.5 |
| 20260906064516 | -17 | 0.0 | 0.0 | 0.00 | 0.00 | 0.00 | 1017.4 | ||
| 20260906063015 | -17 | 0.0 | 0.0 | 0.00 | 0.00 | 0.00 | 1017.3 | ||
| 20260906061508 | -17 | 0.0 | 0.0 | 0.00 | 0.00 | 0.00 | 1017.3 | ||
| 20260906060004 | -17 | 0.0 | 0.0 | 0.00 | 0.00 | 0.00 | 1017.0 | ||
| 20260906054610 | -17 | 0.0 | 0.0 | 0.00 | 0.00 | 0.00 | 1016.9 | ||
| 20260906053056 | -17 | 0.0 | 0.0 | 0.00 | 0.00 | 0.00 | 1016.9 | ||
| 20260906051603 | -17 | 0.0 | 0.0 | 0.00 | 0.00 | 0.00 | 1016.7 | ||
| 20260906050051 | -17 | 0.0 | 0.0 | 0.00 | 0.00 | 0.00 | 1016.7 | ||
| 20260906044544 | -17 | 115 | 0.0 | 1.6 | 0.00 | 0.00 | 0.00 | 1016.8 | |
| 20260906043041 | 24 | 75 | 0.0 | 1.6 | 0.00 | 0.00 | 0.00 | 44 | 1016.5 |
| 20260906041539 | 25 | 73 | 0.0 | 3.2 | 0.00 | 0.00 | 0.00 | 43 | 1016.5 |
| 20260906040038 | 25 | 72 | 1.6 | 6.4 | 0.00 | 0.00 | 0.00 | 42 | 1016.4 |
| 20260906034537 | 25 | 314 | 1.6 | 6.4 | 0.00 | 0.00 | 0.00 | 43 | 1016.8 |
| 20260906033045 | 25 | 100 | 4.8 | 9.7 | 0.00 | 0.00 | 0.00 | 43 | 1016.5 |
| 20260906031539 | 25 | 18 | 0.0 | 3.2 | 0.00 | 0.00 | 0.00 | 43 | 1016.9 |
| 20260906030033 | 25 | 54 | 0.0 | 0.0 | 0.00 | 0.00 | 0.00 | 43 | 1017.0 |
| 20260906024542 | 25 | 68 | 0.0 | 6.4 | 0.00 | 0.00 | 0.00 | 43 | 1016.7 |
| 20260906023029 | 25 | 99 | 1.6 | 4.8 | 0.00 | 0.00 | 0.00 | 42 | 1016.7 |
| 20260906021528 | 25 | 98 | 0.0 | 3.2 | 0.00 | 0.00 | 0.00 | 42 | 1016.6 |
| 20260906020026 | 25 | 119 | 0.0 | 3.2 | 0.00 | 0.00 | 0.00 | 42 | 1016.6 |
| 20260906014538 | 25 | 103 | 1.6 | 4.8 | 0.00 | 0.00 | 0.00 | 42 | 1016.7 |
| 20260906013038 | 25 | 63 | 0.0 | 3.2 | 0.00 | 0.00 | 0.00 | 41 | 1016.9 |
| 20260906011523 | 25 | 127 | 0.0 | 3.2 | 0.00 | 0.00 | 0.00 | 41 | 1016.9 |
| 20260906010027 | 25 | 86 | 0.0 | 3.2 | 0.00 | 0.00 | 0.00 | 42 | 1017.0 |
| 20260906004521 | 25 | 105 | 0.0 | 1.6 | 0.00 | 0.00 | 0.00 | 41 | 1017.0 |
| 20260906003018 | 26 | 78 | 1.6 | 3.2 | 0.00 | 0.00 | 0.00 | 41 | 1017.0 |
| 20260906001521 | 26 | 110 | 0.0 | 6.4 | 0.00 | 0.00 | 0.00 | 40 | 1017.2 |
| 20260906000014 | 26 | 248 | 0.0 | 3.2 | 0.00 | 0.00 | 0.00 | 39 | 1017.2 |
| 20260905234513 | 26 | 84 | 4.8 | 11.3 | 0.00 | 0.00 | 0.00 | 39 | 1016.9 |
| 20260905233012 | 26 | 242 | 0.0 | 3.2 | 0.00 | 0.00 | 0.00 | 39 | 1016.7 |
| 20260905231511 | 26 | 91 | 0.0 | 6.4 | 0.00 | 0.00 | 0.00 | 40 | 1016.8 |
| 20260905230006 | 26 | 63 | 0.0 | 3.2 | 0.00 | 0.00 | 0.00 | 38 | 1016.9 |
| 20260905224506 | 26 | 50 | 0.0 | 4.8 | 0.00 | 0.00 | 0.00 | 38 | 1016.9 |
| 20260905223003 | 27 | 117 | 0.0 | 4.8 | 0.00 | 0.00 | 0.00 | 38 | 1017.0 |
| 20260905221501 | 27 | 122 | 0.0 | 1.6 | 0.00 | 0.00 | 0.00 | 38 | 1016.9 |
| 20260905220057 | 27 | 90 | 0.0 | 3.2 | 0.00 | 0.00 | 0.00 | 38 | 1016.9 |
| 20260905214601 | 27 | 105 | 1.6 | 4.8 | 0.00 | 0.00 | 0.00 | 38 | 1016.8 |
| 20260905213104 | 27 | 109 | 3.2 | 6.4 | 0.00 | 0.00 | 0.00 | 38 | 1017.0 |
| 20260905211600 | 27 | 81 | 0.0 | 1.6 | 0.00 | 0.00 | 0.00 | 39 | 1017.0 |
| 20260905210058 | 27 | 81 | 0.0 | 1.6 | 0.00 | 0.00 | 0.00 | 38 | 1017.0 |
| 20260905204554 | 27 | 279 | 0.0 | 1.6 | 0.00 | 0.00 | 0.00 | 38 | 1016.9 |
| 20260905203055 | 27 | 275 | 0.0 | 4.8 | 0.00 | 0.00 | 0.00 | 37 | 1016.8 |
| 20260905201609 | 28 | 297 | 0.0 | 6.4 | 0.00 | 0.00 | 0.00 | 37 | 1016.8 |